Location: Newark
(25.6108°S, 54.5803°W)
Time: 07:44:41
(UTC+00:00)

Courier 1B - Pass Details

Date: 31 October 2020
Orbit: 962 x 1209 km, 28.3° (Epoch: 02 December)

Event Time Altitude Azimuth Distance (km) Brightness Sun altitude
Rises 21:30:45 0° 337° (NNW) 3,725 10.7 4.3°
Reaches altitude 10° 21:34:33 10° 358° (N) 2,825 9.8 3.4°
Maximum altitude 21:38:33 16° 33° (NNE) 2,456 9.2 2.6°
Drops below altitude 10° 21:42:41 10° 69° (ENE) 2,942 9.4 1.7°
Sets 21:46:45 0° 89° (E) 3,959 10.0 0.8°
